#timestamp,LO_Frequency,Hit,StdDev 
1607434455.7,286047009.7,P
1607434475.5,286047009.5,P
1607434495.4,286047010.2,P
1607434515.2,286047009.9,Y
1607434535.1,286047000.6,P
1607434536.0,286047000.6,N
1607434555.8,286046999.8,N
1607434575.6,286047002.1,N
1607434595.5,286047002.1,N
1607434615.3,286047001.8,N
1607434635.1,286047004.0,N
1607434655.9,286047001.8,N
1607434675.7,286047000.0,N
1607434695.6,286047002.4,N
1607434715.4,286047004.1,N
1607434735.2,286047002.4,N
1607434755.1,286047002.4,N
1607434756.0,286047002.4,N
1607434775.8,286047002.8,N
1607434795.6,286046999.7,N
1607434815.5,286047002.6,N
1607434835.3,286047002.2,N
1607434855.2,286047003.9,N
1607434875.9,286047002.1,N
1607434895.7,286047004.4,N
1607434915.6,286046999.8,N
1607434935.4,286047001.7,N
1607434955.2,286047001.9,N
1607434975.1,286047000.2,N
1607434976.0,286047000.2,N
1607434995.8,286047000.0,N
1607435015.7,286047000.2,N
1607435035.5,286046999.9,N
1607435055.3,286047000.3,N
1607435075.2,286047002.5,N
1607435095.9,286047004.2,N
1607435115.7,286047003.3,N
1607435135.6,286047004.3,N
1607435155.4,286047001.8,N
1607435175.3,286047004.1,N
1607435195.1,286047005.1,Y
1607435196.0,286047005.1,P
1607435215.8,286047002.5,N
1607435235.7,286046999.8,N
1607435255.5,286047001.0,N
1607435275.3,286046999.3,N
1607435295.2,286046998.9,N
1607435315.0,286047001.0,N
1607435346.0,286047002.8,E
1607435355.9,286047000.4,N
1607435375.7,286046998.4,P
1607435395.5,286046998.9,N
1607435415.4,286047000.6,N
1607435435.2,286046998.9,N
1607435455.1,286047001.2,N
1607435456.0,286047001.2,N
1607435475.8,286046998.6,N
1607435495.6,286047002.5,N
1607435515.5,286046999.7,N
1607435535.3,286047002.4,N
1607435555.1,286047001.2,N
1607435575.9,286046999.0,N
1607435595.7,286046996.5,N
1607435615.6,286046996.5,N
1607435635.4,286046996.9,N
1607435655.2,286046998.8,N
1607435675.1,286046999.0,N
1607435676.0,286046999.0,N
1607435695.8,286046999.3,N
1607435715.6,286046998.9,N
1607435735.5,286046999.2,N
1607435755.3,286046998.9,N
1607435775.2,286047000.7,N
1607435795.9,286046998.5,N
1607435815.7,286046998.9,N
1607435835.6,286046999.5,N
1607435855.4,286046999.0,N
1607435875.2,286046999.4,N
1607435895.1,286046996.9,N
1607435896.0,286046996.9,N
1607435915.8,286046996.6,N
1607435935.7,286046998.7,N
1607435955.5,286047002.8,N
1607435975.3,286047000.6,N
1607435995.2,286046999.3,N
